1491159600.11,236,17.19,74164.5,-1.97,-27.45,-27.61,0,*5E
1491159601.33,237,17.19,74166.8,-1.95,-27.55,-27.77,0,*5B
1491159602.57,238,17.19,74164.0,-1.95,-27.71,-28.09,0,*54
1491159603.79,239,17.19,74164.8,-1.97,-27.71,-28.09,0,*57
1491159605.04,240,17.19,74164.5,-1.95,-27.61,-27.89,0,*5D
1491159606.29,241,17.19,74164.8,-1.95,-27.77,-28.09,0,*5C
1491159607.51,242,17.19,74166.3,-1.93,-27.55,-28.05,0,*55
1491159608.73,243,17.19,74164.5,-1.93,-27.67,-28.09,0,*59
1491159609.98,244,17.19,74164.8,-1.93,-28.05,-28.25,0,*5B
1491159611.2,245,17.19,74164.0,-1.93,-28.05,-28.37,0,*59
1491159612.45,246,17.13,74162.8,-1.95,-27.99,-28.31,0,*50
1491159613.68,247,17.19,74164.0,-1.95,-27.77,-28.31,0,*51
1491159614.9,248,17.19,74166.5,-1.95,-27.77,-28.15,0,*58
1491159616.1,249,17.13,74162.8,-1.97,-27.77,-28.15,0,*5B
1491159617.38,250,17.13,74160.0,-1.95,-27.61,-28.09,0,*5B
1491159618.62,251,17.19,74166.8,-1.95,-27.71,-28.09,0,*5B
1491159619.84,252,17.19,74162.3,-1.95,-27.77,-28.15,0,*53
1491159621.09,253,17.19,74164.0,-1.95,-27.93,-28.25,0,*5B
1491159622.31,254,17.13,74162.5,-1.97,-27.77,-28.25,0,*54
1491159623.56,255,17.19,74166.0,-1.95,-27.93,-28.25,0,*5D
1491159624.81,256,17.19,74164.5,-1.95,-27.93,-28.25,0,*5E
1491159626.06,257,17.19,74164.8,-1.95,-27.77,-28.25,0,*55
1491159627.31,258,17.13,74160.8,-1.95,-27.89,-28.25,0,*5B
1491159628.53,259,17.19,74162.5,-1.95,-27.89,-28.15,0,*59
1491159629.73,260,17.19,74164.0,-1.97,-27.89,-28.31,0,*57
1491159630.99,261,17.19,74162.3,-1.95,-27.99,-28.47,0,*54
1491159632.26,262,17.19,74162.5,-1.95,-27.99,-28.43,0,*53
1491159633.48,263,17.13,74160.0,-1.97,-28.09,-28.31,0,*53
1491159634.71,264,17.19,74164.5,-1.95,-27.93,-28.31,0,*5A
1491159635.9,265,17.19,74162.5,-1.97,-27.93,-28.31,0,*59
1491159637.17,266,17.19,74164.8,-1.95,-27.99,-28.43,0,*57
1491159638.44,267,17.19,74164.8,-1.95,-27.99,-28.43,0,*56
1491159639.68,268,17.19,74164.5,-1.97,-28.09,-28.43,0,*5D
1491159640.9,269,17.13,74164.3,-1.95,-27.93,-28.31,0,*57
1491159642.12,270,17.19,74166.0,-1.97,-27.89,-28.25,0,*53
1491159643.4,271,17.13,74164.8,-1.95,-27.61,-28.09,0,*58
1491159644.65,272,17.19,74164.0,-1.95,-27.71,-28.25,0,*54
1491159645.86,273,17.19,74166.5,-1.97,-27.89,-28.25,0,*50
1491159647.11,274,17.13,74164.3,-1.95,-27.89,-28.25,0,*55
1491159648.36,275,17.19,74166.5,-1.95,-27.77,-28.25,0,*55
1491159649.56,276,17.13,74162.3,-1.97,-27.77,-28.15,0,*57
1491159650.78,277,17.19,74164.5,-1.97,-27.77,-28.25,0,*55
1491159651.99,278,17.19,74164.0,-1.97,-27.89,-28.25,0,*5B
1491159653.19,279,17.19,74164.0,-1.97,-27.89,-28.31,0,*5F
1491159654.44,280,17.13,74162.0,-1.95,-27.99,-28.31,0,*5A
1491159655.63,281,17.19,74164.8,-1.97,-27.89,-28.31,0,*58
1491159656.85,282,17.19,74164.3,-1.97,-27.77,-28.09,0,*51
1491159658.07,283,17.13,74162.5,-1.95,-27.77,-28.15,0,*5F
1491159659.27,284,17.19,74166.8,-1.97,-27.77,-28.15,0,*5A
1491159660.54,285,17.19,74166.8,-1.95,-28.09,-28.43,0,*5C
1491159661.79,286,17.19,74166.5,-1.95,-27.99,-28.31,0,*5C
1491159663.04,287,17.19,74166.8,-1.95,-27.77,-28.25,0,*58
1491159664.23,288,17.19,74166.5,-1.97,-27.93,-28.31,0,*5A
1491159665.5,289,17.19,74166.3,-1.95,-28.09,-28.43,0,*50
1491159666.72,290,17.19,74166.5,-1.97,-27.99,-28.31,0,*59
1491159667.94,291,17.19,74164.3,-1.97,-27.89,-28.25,0,*5C
1491159669.19,292,17.19,74166.0,-1.95,-27.61,-27.93,0,*59
1491159670.43,293,17.13,74166.0,-1.95,-27.71,-28.09,0,*55
1491159671.63,294,17.13,74164.3,-1.97,-27.89,-28.15,0,*5A
1491159672.85,295,17.13,74162.0,-1.95,-27.77,-28.15,0,*58
1491159674.07,296,17.19,74166.8,-1.97,-27.71,-28.09,0,*52
1491159675.26,297,17.19,74166.8,-1.97,-27.71,-27.93,0,*5F
1491159676.45,298,17.19,74166.5,-1.97,-27.89,-28.15,0,*56
1491159677.67,299,17.19,74166.0,-1.97,-27.61,-27.93,0,*50
1491159678.89,300,17.19,74164.0,-1.97,-27.45,-27.89,0,*5C
1491159680.12,301,17.19,74166.8,-1.95,-27.71,-28.15,0,*52
1491159681.36,302,17.19,74164.8,-1.95,-27.89,-28.25,0,*55
1491159682.59,303,17.13,74164.8,-1.95,-27.77,-28.15,0,*56
1491159683.83,304,17.13,74162.8,-1.95,-27.71,-28.09,0,*5A
1491159685.08,305,17.19,74164.5,-1.95,-27.71,-28.09,0,*5B
1491159686.35,306,17.13,74164.3,-1.95,-27.61,-28.09,0,*59
1491159687.58,307,17.19,74166.0,-1.95,-27.71,-27.89,0,*5E
1491159688.82,308,17.19,74166.0,-1.95,-27.89,-28.25,0,*5F
1491159690.02,309,17.13,74160.8,-1.97,-27.77,-28.15,0,*5E
1491159691.23,310,17.19,74166.5,-1.97,-27.71,-28.09,0,*5D
1491159692.45,311,17.19,74166.8,-1.97,-27.93,-28.25,0,*5E
1491159693.72,312,17.19,74168.8,-1.95,-28.09,-28.47,0,*57
1491159694.94,313,17.19,74164.8,-1.97,-27.99,-28.31,0,*53
1491159696.21,314,17.19,74164.5,-1.95,-28.09,-28.47,0,*51
1491159697.48,315,17.19,74168.3,-1.95,-28.09,-28.47,0,*50
1491159698.72,316,17.19,74168.5,-1.97,-27.99,-28.43,0,*53
1491159699.97,317,17.13,74164.8,-1.95,-27.99,-28.31,0,*55
1491159701.16,318,17.13,74162.8,-1.97,-27.77,-28.15,0,*5E
1491159702.39,319,17.13,74164.3,-1.95,-27.77,-28.15,0,*5D
1491159703.6,320,17.19,74166.3,-1.95,-27.55,-27.77,0,*5C
1491159704.8,321,17.13,74164.0,-1.97,-27.71,-28.15,0,*52
1491159706.05,322,17.19,74166.3,-1.95,-27.77,-28.25,0,*56
1491159707.3,323,17.13,74162.5,-1.95,-27.99,-28.31,0,*52
1491159708.54,324,17.19,74164.5,-1.97,-28.09,-28.47,0,*50
1491159709.77,325,17.19,74164.0,-1.97,-27.99,-28.43,0,*53
1491159710.99,326,17.19,74166.5,-1.97,-27.93,-28.25,0,*5A
1491159712.23,327,17.13,74160.8,-1.97,-27.99,-28.43,0,*51
1491159713.43,328,17.13,74164.8,-1.97,-27.77,-28.15,0,*5D
1491159714.62,329,17.19,74168.0,-1.97,-27.77,-28.15,0,*5C
1491159715.87,330,17.19,74164.5,-1.95,-27.99,-28.31,0,*50
1491159717.11,331,17.19,74166.5,-1.95,-28.15,-28.43,0,*5F
1491159718.31,332,17.13,74164.3,-1.97,-27.77,-28.15,0,*56
1491159719.53,333,17.19,74166.8,-1.97,-27.71,-28.09,0,*5C
1491159720.74,334,17.13,74162.3,-1.97,-27.77,-28.25,0,*53
1491159721.97,335,17.19,74166.0,-1.95,-27.77,-28.15,0,*53
1491159723.16,336,17.19,74164.8,-1.97,-27.71,-27.93,0,*55
1491159724.35,337,17.19,74164.5,-1.97,-27.71,-28.15,0,*55
1491159725.6,338,17.13,74166.0,-1.97,-27.99,-28.25,0,*5F
1491159726.82,339,17.19,74164.5,-1.95,-27.77,-27.93,0,*5E
1491159728.04,340,17.19,74166.3,-1.97,-27.61,-27.77,0,*5F
1491159729.26,341,17.19,74164.5,-1.95,-27.55,-27.89,0,*5A
1491159730.48,342,17.19,74164.0,-1.95,-27.71,-27.89,0,*5F
1491159731.73,343,17.13,74166.0,-1.95,-27.61,-27.89,0,*5F
1491159732.98,344,17.19,74164.3,-1.95,-27.61,-27.93,0,*53
1491159734.21,345,17.19,74164.3,-1.93,-27.61,-27.77,0,*5E
1491159735.4,346,17.13,74166.0,-1.93,-27.51,-27.89,0,*5F
1491159736.62,347,17.19,74164.8,-1.91,-27.67,-27.89,0,*59
1491159737.85,348,17.13,74162.5,-1.93,-27.67,-28.05,0,*5F
1491159739.12,349,17.13,74164.5,-1.91,-27.83,-28.21,0,*50
1491159740.34,350,17.13,74164.3,-1.93,-27.71,-28.09,0,*5D
1491159741.53,351,17.19,74166.3,-1.93,-27.71,-27.89,0,*5B
1491159742.75,352,17.13,74162.8,-1.93,-27.71,-28.05,0,*53
1491159743.97,353,17.13,74164.5,-1.93,-27.71,-28.21,0,*54
1491159745.17,354,17.19,74168.0,-1.93,-27.55,-27.89,0,*58
1491159746.39,355,17.13,74166.0,-1.93,-27.67,-28.09,0,*5F
1491159747.61,356,17.13,74164.0,-1.93,-27.71,-28.21,0,*51
1491159748.85,357,17.13,74164.0,-1.93,-27.83,-28.21,0,*5D
1491159750.1,358,17.13,74162.8,-1.91,-27.89,-28.21,0,*5A
1491159751.32,359,17.13,74164.0,-1.93,-27.93,-28.43,0,*56
1491159752.54,360,17.19,74164.8,-1.93,-28.09,-28.53,0,*51
1491159753.73,361,17.19,74164.8,-1.93,-27.93,-28.37,0,*5E
1491159755.0,362,17.13,74162.8,-1.95,-28.09,-28.47,0,*50
1491159756.26,363,17.13,74166.5,-1.95,-27.99,-28.43,0,*53
1491159757.49,364,17.13,74164.8,-1.95,-27.89,-28.31,0,*50
1491159758.71,365,17.19,74170.5,-1.95,-27.89,-28.15,0,*57
1491159759.96,366,17.13,74166.3,-1.95,-27.77,-28.25,0,*56
1491159761.19,367,17.19,74166.0,-1.93,-27.67,-28.05,0,*52
1491159762.41,368,17.13,74164.0,-1.93,-27.93,-28.25,0,*54
1491159763.63,369,17.13,74164.5,-1.95,-27.77,-28.15,0,*5A
1491159764.88,370,17.13,74164.5,-1.95,-27.77,-28.25,0,*51
1491159766.13,371,17.13,74160.8,-1.95,-27.77,-28.25,0,*50
1491159767.35,372,17.13,74166.0,-1.93,-27.71,-28.09,0,*5D
1491159768.59,373,17.19,74168.0,-1.93,-27.83,-28.21,0,*5B
1491159769.84,374,17.13,74164.8,-1.95,-27.99,-28.31,0,*50
1491159771.03,375,17.19,74166.8,-1.93,-27.93,-28.37,0,*5B
1491159772.25,376,17.13,74166.5,-1.93,-27.89,-28.25,0,*50
1491159773.5,377,17.13,74166.5,-1.93,-27.83,-28.21,0,*5F
1491159774.74,378,17.13,74166.8,-1.93,-27.39,-27.83,0,*56
1491159775.96,379,17.13,74166.8,-1.93,-27.67,-28.05,0,*5D
1491159777.23,380,17.13,74166.3,-1.91,-27.83,-28.21,0,*55
1491159778.5,381,17.13,74164.5,-1.91,-27.83,-28.25,0,*50
1491159779.72,382,17.13,74164.5,-1.93,-27.55,-28.05,0,*58
1491159780.99,383,17.13,74160.3,-1.91,-27.83,-28.09,0,*5C
1491159782.21,384,17.13,74166.5,-1.93,-27.67,-28.05,0,*5F
1491159783.44,385,17.13,74162.8,-1.91,-27.55,-27.89,0,*56
1491159784.63,386,17.13,74162.5,-1.93,-27.67,-27.89,0,*56
1491159785.88,387,17.19,74168.0,-1.91,-27.71,-28.09,0,*55
1491159787.1,388,17.13,74162.3,-1.93,-27.93,-28.21,0,*5E
1491159788.32,389,17.13,74164.5,-1.93,-27.89,-28.25,0,*50
1491159789.57,390,17.13,74166.8,-1.91,-27.71,-28.09,0,*53
1491159790.84,391,17.13,74166.3,-1.91,-28.05,-28.43,0,*50
1491159792.03,392,17.13,74164.3,-1.93,-27.93,-28.37,0,*52
1491159793.28,393,17.13,74164.0,-1.93,-28.09,-28.25,0,*5C
1491159794.5,394,17.13,74164.5,-1.93,-27.89,-28.25,0,*5C
1491159795.72,395,17.13,74166.5,-1.93,-27.93,-28.25,0,*56
1491159796.94,396,17.19,74166.0,-1.93,-27.71,-28.09,0,*57
1491159798.16,397,17.19,74164.8,-1.91,-27.89,-28.37,0,*5E
1491159799.38,398,17.19,74168.8,-1.93,-27.67,-28.09,0,*5E
1491159800.62,399,17.13,74164.5,-1.93,-27.83,-28.21,0,*5F
1491159801.87,400,17.19,74166.0,-1.91,-27.67,-28.09,0,*5A
1491159803.09,401,17.19,74166.0,-1.93,-27.93,-28.21,0,*58
1491159804.34,402,17.13,74164.3,-1.93,-28.05,-28.25,0,*5F
1491159805.56,403,17.13,74166.5,-1.93,-27.89,-28.25,0,*55
1491159806.83,404,17.13,74162.0,-1.91,-27.83,-28.25,0,*5A
1491159808.11,405,17.19,74166.0,-1.91,-28.05,-28.43,0,*5A
1491159809.35,406,17.13,74166.8,-1.93,-27.83,-28.25,0,*5A
1491159810.57,407,17.13,74162.8,-1.93,-27.71,-28.21,0,*52
1491159811.81,408,17.13,74164.0,-1.91,-27.71,-28.09,0,*55
1491159813.03,409,17.13,74164.3,-1.93,-27.89,-28.25,0,*5F
1491159814.25,410,17.13,74164.3,-1.93,-27.89,-28.25,0,*57
1491159815.48,411,17.13,74162.8,-1.91,-27.93,-28.37,0,*5C
1491159816.75,412,17.13,74162.8,-1.91,-27.83,-28.21,0,*59
1491159817.97,413,17.13,74166.0,-1.93,-27.71,-28.25,0,*53
1491159819.19,414,17.13,74166.0,-1.93,-27.93,-28.25,0,*58
1491159820.41,415,17.13,74166.0,-1.93,-27.89,-28.25,0,*52
1491159821.63,416,17.13,74166.8,-1.93,-27.89,-28.25,0,*51
1491159822.85,417,17.13,74164.5,-1.93,-27.89,-28.25,0,*50
1491159824.07,418,17.19,74166.5,-1.93,-27.89,-28.25,0,*5F
1491159825.29,419,17.19,74164.0,-1.91,-27.93,-28.37,0,*54
1491159826.51,420,17.13,74164.0,-1.93,-27.93,-28.43,0,*5F
1491159827.75,421,17.13,74166.0,-1.93,-28.05,-28.43,0,*5E
1491159828.97,422,17.13,74166.8,-1.93,-28.05,-28.53,0,*5C
1491159830.22,423,17.13,74164.3,-1.93,-28.21,-28.59,0,*51
1491159831.45,424,17.13,74162.8,-1.93,-28.21,-28.53,0,*5C
1491159832.69,425,17.13,74164.5,-1.93,-28.05,-28.43,0,*5A
1491159833.91,426,17.13,74166.0,-1.93,-28.05,-28.53,0,*58
1491159835.13,427,17.13,74164.0,-1.93,-27.89,-28.25,0,*53
1491159836.38,428,17.13,74166.0,-1.93,-27.83,-28.25,0,*56
1491159837.57,429,17.19,74166.0,-1.93,-27.93,-28.37,0,*55
1491159838.81,430,17.13,74166.8,-1.93,-28.09,-28.43,0,*52
1491159840.06,431,17.13,74164.8,-1.93,-28.05,-28.43,0,*5F
1491159841.33,432,17.13,74164.8,-1.95,-28.09,-28.59,0,*5D
1491159842.6,433,17.13,74164.0,-1.95,-28.25,-28.63,0,*5B
1491159843.88,434,17.13,74164.3,-1.95,-28.25,-28.63,0,*5C
1491159845.15,435,17.19,74168.0,-1.95,-28.09,-28.43,0,*51
1491159846.38,436,17.13,74164.3,-1.95,-27.93,-28.31,0,*5B
1491159847.62,437,17.19,74170.0,-1.95,-28.15,-28.47,0,*5A
1491159848.9,438,17.13,74166.0,-1.95,-28.25,-28.63,0,*50
1491159850.14,439,17.13,74166.3,-1.95,-28.15,-28.59,0,*5B
1491159851.36,440,17.13,74166.5,-1.93,-28.21,-28.69,0,*57
1491159852.58,441,17.13,74166.5,-1.97,-27.99,-28.31,0,*53
1491159853.78,442,17.13,74166.3,-1.97,-27.77,-28.15,0,*56
1491159855.02,443,17.13,74162.5,-1.97,-27.99,-28.59,0,*5F
1491159856.27,444,17.13,74164.3,-1.95,-28.15,-28.63,0,*58
1491159857.48,445,17.13,74164.3,-1.97,-28.15,-28.47,0,*5D
1491159858.72,446,17.13,74164.5,-1.97,-27.99,-28.43,0,*51
1491159859.96,447,17.13,74166.5,-1.95,-28.15,-28.59,0,*52
1491159861.2,448,17.13,74164.3,-1.95,-28.31,-28.79,0,*59
1491159862.42,449,17.13,74166.5,-1.97,-28.15,-28.63,0,*57
1491159863.66,450,17.13,74164.5,-1.97,-27.99,-28.47,0,*52
1491159864.88,451,17.13,74166.0,-1.95,-27.89,-28.31,0,*51
1491159866.1,452,17.13,74164.5,-1.97,-27.99,-28.31,0,*51
1491159867.32,453,17.13,74166.0,-1.97,-28.15,-28.63,0,*5C
1491159868.54,454,17.13,74164.8,-1.97,-28.15,-28.63,0,*5B
1491159869.73,455,17.13,74166.3,-1.97,-27.89,-28.31,0,*57
1491159870.97,456,17.19,74168.5,-1.97,-27.99,-28.43,0,*50
1491159872.17,457,17.13,74164.8,-1.97,-27.93,-28.31,0,*5E
1491159873.41,458,17.13,74166.0,-1.97,-27.99,-28.43,0,*5E
1491159874.6,459,17.13,74164.3,-1.97,-27.93,-28.31,0,*50
1491159875.84,460,17.13,74166.8,-1.97,-27.99,-28.43,0,*55
1491159877.06,461,17.13,74164.5,-1.97,-27.77,-28.25,0,*54
1491159878.3,462,17.13,74164.0,-1.97,-27.99,-28.43,0,*57
1491159879.49,463,17.13,74164.8,-1.97,-27.93,-28.31,0,*59
1491159880.71,464,17.13,74164.0,-1.97,-28.15,-28.63,0,*58
1491159881.96,465,17.13,74166.8,-1.95,-28.15,-28.59,0,*52
1491159883.2,466,17.13,74166.3,-1.97,-28.09,-28.59,0,*5E
1491159884.4,467,17.19,74168.0,-1.97,-27.89,-28.31,0,*56
1491159885.63,468,17.13,74166.8,-1.97,-27.99,-28.43,0,*5D
1491159886.88,469,17.13,74168.5,-1.97,-28.09,-28.59,0,*51
1491159888.11,470,17.13,74164.0,-1.97,-28.09,-28.43,0,*52
1491159889.33,471,17.13,74162.5,-1.97,-28.15,-28.59,0,*55
1491159890.57,472,17.13,74164.0,-1.97,-28.25,-28.75,0,*5B
1491159891.79,473,17.13,74164.5,-1.97,-27.99,-28.31,0,*52
1491159893.03,474,17.13,74164.8,-1.97,-27.99,-28.43,0,*50
1491159894.28,475,17.13,74168.0,-1.99,-28.05,-28.53,0,*54
1491159895.5,476,17.13,74164.3,-1.99,-28.37,-28.69,0,*5F
1491159896.74,477,17.13,74160.8,-1.99,-28.37,-28.79,0,*5F
1491159897.95,478,17.13,74166.3,-1.97,-28.31,-28.75,0,*54
1491159899.2,479,17.13,74164.0,-1.99,-28.15,-28.63,0,*5A
1491159900.45,480,17.13,74166.8,-1.99,-28.05,-28.37,0,*5C
1491159901.69,481,17.13,74166.3,-1.99,-27.83,-28.31,0,*5A
1491159902.91,482,17.13,74166.0,-1.99,-27.93,-28.37,0,*5E
1491159904.16,483,17.13,74166.3,-1.99,-28.05,-28.53,0,*5D
1491159905.4,484,17.13,74164.5,-1.99,-28.37,-28.79,0,*53
1491159906.65,485,17.13,74166.5,-1.97,-28.25,-28.63,0,*54
1491159907.87,486,17.13,74166.3,-1.97,-27.93,-28.43,0,*57
1491159909.11,487,17.13,74170.3,-1.97,-27.99,-28.47,0,*58
1491159910.35,488,17.13,74164.0,-1.99,-28.31,-28.63,0,*52
1491159911.57,489,17.13,74164.5,-2.01,-28.37,-28.79,0,*5C
1491159912.79,490,17.13,74164.5,-2.01,-28.37,-28.79,0,*54
1491159914.02,491,17.13,74166.3,-2.01,-28.47,-28.79,0,*52
1491159915.24,492,17.13,74168.3,-2.01,-28.31,-28.63,0,*5B
1491159916.49,493,17.13,74164.3,-1.99,-28.15,-28.63,0,*5E
1491159917.73,494,17.13,74168.0,-2.01,-28.05,-28.47,0,*5C
1491159918.98,495,17.13,74168.8,-1.99,-27.93,-28.47,0,*5F
1491159920.22,496,17.13,74164.0,-1.99,-28.31,-28.63,0,*5D
1491159921.47,497,17.13,74164.0,-1.99,-28.37,-28.79,0,*51
1491159922.69,498,17.13,74164.5,-2.01,-28.15,-28.63,0,*57
1491159923.9,499,17.13,74166.3,-2.01,-27.83,-28.37,0,*57
1491159925.17,500,17.13,74166.0,-1.99,-27.99,-28.47,0,*58
1491159926.42,501,17.13,74166.8,-1.99,-28.05,-28.53,0,*56
1491159927.67,502,17.13,74164.0,-2.01,-28.21,-28.63,0,*52
1491159928.89,503,17.13,74164.8,-2.01,-28.21,-28.69,0,*59
1491159930.11,504,17.13,74166.5,-2.01,-28.15,-28.63,0,*53
1491159931.39,505,17.19,74170.8,-1.99,-28.21,-28.63,0,*57
1491159932.63,506,17.13,74164.5,-1.99,-28.31,-28.79,0,*5E
1491159933.85,507,17.13,74168.5,-2.01,-28.15,-28.63,0,*50
1491159935.1,508,17.13,74164.3,-1.99,-28.05,-28.37,0,*5D
1491159936.32,509,17.13,74166.0,-2.01,-28.05,-28.53,0,*5C
1491159937.51,510,17.13,74166.8,-2.01,-28.31,-28.69,0,*5A
1491159938.7,511,17.13,74164.8,-2.01,-28.37,-28.69,0,*5D
1491159939.92,512,17.13,74166.8,-2.01,-28.37,-28.79,0,*5F
1491159941.17,513,17.13,74166.5,-2.01,-28.05,-28.63,0,*54
1491159942.36,514,17.13,74168.3,-2.01,-27.93,-28.37,0,*52
1491159943.58,515,17.13,74168.0,-2.05,-28.09,-28.53,0,*59
1491159944.8,516,17.13,74170.8,-2.01,-27.83,-28.37,0,*51
1491159946.01,517,17.13,74166.5,-2.01,-27.93,-28.47,0,*56
1491159947.21,518,17.13,74166.8,-2.01,-28.15,-28.53,0,*5D
1491159948.42,519,17.13,74170.5,-2.01,-27.99,-28.37,0,*55
1491159949.64,520,17.13,74164.5,-2.01,-27.83,-28.31,0,*52
1491159950.89,521,17.13,74166.3,-2.01,-28.05,-28.63,0,*55
1491159952.1,522,17.13,74164.3,-2.01,-28.31,-28.79,0,*5A
1491159953.34,523,17.13,74166.8,-1.99,-28.31,-28.79,0,*59
1491159954.56,524,17.13,74170.0,-2.01,-28.21,-28.53,0,*55
1491159955.78,525,17.13,74164.8,-2.01,-27.99,-28.37,0,*5A
1491159957.02,526,17.13,74168.3,-2.01,-27.99,-28.47,0,*5E
1491159958.24,527,17.13,74164.0,-2.01,-27.99,-28.37,0,*58
1491159959.43,528,17.13,74166.3,-2.01,-27.93,-28.37,0,*5D
1491159960.65,529,17.13,74166.3,-2.01,-27.99,-28.53,0,*54
1491159961.87,530,17.13,74170.3,-2.01,-28.21,-28.53,0,*50
1491159963.11,531,17.13,74166.0,-2.01,-27.99,-28.47,0,*58
1491159964.33,532,17.13,74168.3,-2.01,-27.99,-28.37,0,*5C
1491159965.55,533,17.13,74164.0,-2.01,-28.05,-28.37,0,*57
1491159966.79,534,17.13,74168.8,-2.01,-28.25,-28.47,0,*55
1491159968.02,535,17.13,74168.0,-2.05,-28.21,-28.69,0,*58
1491159969.27,536,17.13,74170.8,-2.05,-28.21,-28.59,0,*58
1491159970.5,537,17.13,74166.0,-2.05,-28.05,-28.53,0,*55
1491159971.72,538,17.13,74164.5,-2.05,-28.09,-28.53,0,*56
1491159972.97,539,17.13,74166.5,-2.05,-28.05,-28.43,0,*5A
1491159974.19,540,17.13,74168.3,-2.05,-28.05,-28.53,0,*55
1491159975.4,541,17.13,74170.0,-2.05,-28.37,-28.85,0,*5E
1491159976.64,542,17.13,74166.5,-2.05,-27.99,-28.43,0,*5C
1491159977.88,543,17.13,74168.8,-2.05,-27.99,-28.43,0,*5D
1491159979.14,544,17.13,74164.8,-2.05,-28.21,-28.59,0,*5D
1491159980.39,545,17.13,74166.8,-2.05,-28.09,-28.59,0,*56
1491159981.64,546,17.13,74166.8,-2.05,-28.21,-28.59,0,*5F
1491159982.86,547,17.13,74168.3,-2.05,-27.99,-28.37,0,*5A
1491159984.08,548,17.13,74164.3,-2.05,-27.89,-28.25,0,*57
1491159985.3,549,17.13,74170.5,-2.05,-27.99,-28.37,0,*54
1491159986.53,550,17.13,74166.8,-2.05,-28.05,-28.53,0,*54
1491159987.77,551,17.13,74170.0,-2.05,-27.99,-28.43,0,*5E
1491159988.99,552,17.13,74166.3,-2.05,-28.09,-28.69,0,*53
1491159990.27,553,17.13,74166.8,-2.07,-28.21,-28.75,0,*57
1491159991.49,554,17.13,74164.8,-2.05,-28.25,-28.69,0,*5B
1491159992.73,555,17.13,74166.3,-2.05,-28.21,-28.75,0,*53
1491159993.98,556,17.13,74170.0,-2.07,-27.89,-28.43,0,*5A
1491159995.2,557,17.13,74168.5,-2.05,-28.09,-28.53,0,*5F
1491159996.43,558,17.13,74168.8,-2.05,-28.21,-28.69,0,*53
1491159997.68,559,17.13,74168.0,-2.07,-28.25,-28.85,0,*56
1491159998.96,560,17.13,74168.3,-2.07,-28.25,-28.75,0,*53
1491160000.18,561,17.13,74168.0,-2.05,-28.25,-28.69,0,*5D
1491160001.46,562,17.13,74164.5,-2.07,-28.21,-28.59,0,*5B
1491160002.74,563,17.13,74168.3,-2.07,-28.21,-28.59,0,*5A
1491160003.96,564,17.13,74170.5,-2.05,-28.25,-28.69,0,*58
1491160005.23,565,17.13,74166.3,-2.07,-27.99,-28.43,0,*5B
1491160006.43,566,17.13,74168.8,-2.05,-27.89,-28.37,0,*58
1491160007.68,567,17.13,74164.0,-2.07,-27.89,-28.25,0,*58
1491160008.93,568,17.13,74170.8,-2.07,-27.99,-28.37,0,*55
1491160010.2,569,17.13,74166.0,-2.07,-28.09,-28.59,0,*5A
1491160011.43,570,17.13,74166.0,-2.05,-28.21,-28.53,0,*50
1491160012.71,571,17.13,74164.3,-2.07,-28.21,-28.59,0,*59
1491160013.98,572,17.13,74170.5,-2.07,-28.25,-28.75,0,*50
1491160015.26,573,17.13,74166.3,-2.07,-28.21,-28.59,0,*5B
1491160016.5,574,17.13,74168.3,-2.09,-27.99,-28.43,0,*55
1491160017.75,575,17.13,74168.3,-2.07,-27.89,-28.25,0,*5B
1491160019.02,576,17.13,74168.5,-2.07,-27.99,-28.43,0,*59
1491160020.29,577,17.13,74166.3,-2.07,-27.99,-28.43,0,*58
1491160021.54,578,17.13,74164.3,-2.07,-27.89,-28.43,0,*56
1491160022.78,579,17.13,74168.8,-2.07,-27.89,-28.43,0,*57
1491160024.06,580,17.13,74168.3,-2.07,-27.99,-28.43,0,*50
1491160025.3,581,17.13,74170.5,-2.07,-27.89,-28.43,0,*50
1491160026.55,582,17.13,74166.5,-2.07,-27.99,-28.37,0,*51
1491160027.77,583,17.13,74168.0,-2.07,-27.89,-28.37,0,*51
1491160029.02,584,17.13,74166.3,-2.07,-28.09,-28.53,0,*53
1491160030.3,585,17.13,74168.3,-2.07,-28.09,-28.59,0,*58
1491160031.54,586,17.13,74166.8,-2.09,-28.09,-28.47,0,*5A
1491160032.76,587,17.13,74168.5,-2.05,-27.83,-28.37,0,*5D
1491160034.0,588,17.13,74168.3,-2.07,-27.99,-28.53,0,*59
1491160035.25,589,17.13,74166.5,-2.07,-28.09,-28.53,0,*5E
1491160036.52,590,17.13,74168.8,-2.07,-27.99,-28.43,0,*51
1491160037.77,591,17.13,74170.5,-2.07,-28.09,-28.53,0,*57
1491160039.02,592,17.13,74164.5,-2.07,-27.89,-28.43,0,*52
1491160040.27,593,17.13,74166.8,-2.07,-27.89,-28.25,0,*53
1491160041.54,594,17.13,74166.8,-2.07,-27.99,-28.43,0,*55
1491160042.78,595,17.13,74166.5,-2.05,-27.99,-28.43,0,*56
1491160044.03,596,17.13,74166.8,-2.07,-27.89,-28.43,0,*56
1491160045.28,597,17.13,74166.8,-2.07,-27.89,-28.25,0,*57
1491160046.55,598,17.13,74166.0,-2.07,-27.99,-28.43,0,*59
1491160047.75,599,17.13,74166.3,-2.09,-27.93,-28.31,0,*59
1491160048.97,600,17.13,74168.5,-2.09,-27.77,-28.25,0,*55
1491160050.19,601,17.13,74168.8,-2.09,-27.71,-28.09,0,*5C
1491160051.39,602,17.13,74168.3,-2.09,-27.89,-28.31,0,*53
1491160052.61,603,17.13,74168.8,-2.09,-27.71,-28.25,0,*50
1491160053.83,604,17.13,74166.5,-2.09,-27.89,-28.43,0,*50
1491160055.04,605,17.13,74170.0,-2.09,-27.89,-28.43,0,*51
1491160056.29,606,17.13,74168.5,-2.07,-27.71,-28.21,0,*5F
1491160057.57,607,17.13,74168.3,-2.07,-27.83,-28.25,0,*57
1491160058.82,608,17.13,74164.5,-2.07,-27.71,-28.25,0,*55
1491160060.04,609,17.13,74166.0,-2.07,-27.89,-28.37,0,*50
1491160061.31,610,17.13,74170.5,-2.07,-27.83,-28.21,0,*55
1491160062.59,611,17.13,74170.0,-2.07,-27.83,-28.21,0,*54
1491160063.84,612,17.13,74166.8,-2.07,-27.71,-28.21,0,*5A
1491160065.06,613,17.13,74168.3,-2.05,-27.55,-28.05,0,*59
1491160066.32,614,17.13,74168.8,-2.07,-27.67,-28.05,0,*5D
1491160067.54,615,17.13,74166.0,-2.05,-27.71,-27.99,0,*53
1491160068.77,616,17.13,74168.3,-2.05,-27.71,-28.21,0,*5C
1491160070.01,617,17.13,74166.5,-2.05,-27.83,-28.21,0,*50
1491160071.27,618,17.13,74168.3,-2.07,-27.55,-28.25,0,*52
1491160072.49,619,17.13,74168.3,-2.05,-27.71,-28.05,0,*55
1491160073.74,620,17.13,74168.5,-2.07,-27.71,-27.99,0,*57
1491160074.97,621,17.13,74168.5,-2.05,-27.67,-28.05,0,*59
1491160076.19,622,17.13,74168.8,-2.05,-27.83,-28.37,0,*51
1491160077.43,623,17.13,74166.5,-2.05,-27.99,-28.43,0,*58
1491160078.68,624,17.13,74168.8,-2.07,-28.05,-28.53,0,*56
1491160079.91,625,17.13,74164.5,-2.05,-27.99,-28.53,0,*5F
1491160081.12,626,17.13,74164.5,-2.05,-27.89,-28.43,0,*5C
1491160082.34,627,17.13,74168.3,-2.05,-27.99,-28.37,0,*5F
1491160083.59,628,17.13,74168.8,-2.05,-27.99,-28.59,0,*58
1491160084.82,629,17.13,74168.5,-2.05,-28.05,-28.53,0,*59
1491160086.07,630,17.13,74170.5,-2.07,-28.05,-28.53,0,*53
1491160087.32,631,17.13,74166.3,-2.05,-28.09,-28.59,0,*56
1491160088.57,632,17.13,74164.8,-2.05,-28.09,-28.59,0,*55
1491160089.84,633,17.13,74168.5,-2.07,-27.99,-28.43,0,*5B
1491160091.09,634,17.13,74166.3,-2.05,-28.05,-28.43,0,*54
1491160092.33,635,17.13,74166.3,-2.07,-27.89,-28.43,0,*5C
1491160093.58,636,17.13,74168.0,-2.05,-27.99,-28.59,0,*57
1491160094.8,637,17.13,74170.0,-2.09,-28.15,-28.63,0,*58
1491160096.05,638,17.13,74166.3,-2.07,-27.71,-28.25,0,*56
1491160097.3,639,17.13,74170.8,-2.07,-27.83,-28.37,0,*59
1491160098.55,640,17.13,74166.8,-2.07,-28.05,-28.53,0,*54
1491160099.8,641,17.13,74168.3,-2.07,-28.05,-28.53,0,*55
1491160101.05,642,17.13,74170.3,-2.07,-28.09,-28.69,0,*53
1491160102.3,643,17.13,74166.3,-2.07,-27.89,-28.25,0,*5D
1491160103.56,644,17.13,74166.3,-2.09,-27.61,-28.05,0,*50
1491160104.75,645,17.13,74168.5,-2.05,-27.89,-28.37,0,*5A
1491160106.0,646,17.13,74170.3,-2.07,-27.71,-28.21,0,*5B
1491160107.23,647,17.13,74170.0,-2.09,-27.61,-27.93,0,*53
1491160108.45,648,17.13,74168.5,-2.05,-27.71,-28.05,0,*51
1491160109.7,649,17.13,74170.5,-2.05,-27.83,-28.21,0,*5B